| time (UTC) | temp C | wind direction | speed KPH | gust KPH | rain 1hr cm | rain 24hr cm | rain mn cm | humidity % | barometer mb |
| 20260502231547 | 16 | 124 | 1.6 | 8.0 | 0.00 | 0.00 | 0.00 | 71 | 1018.7 |
| 20260502230045 | 16 | 110 | 4.8 | 8.0 | 0.00 | 0.00 | 0.00 | 71 | 1018.8 |
| 20260502224542 | 16 | 110 | 4.8 | 8.0 | 0.00 | 0.00 | 0.00 | 70 | 1018.8 |
| 20260502223040 | 16 | 117 | 3.2 | 6.4 | 0.00 | 0.00 | 0.00 | 68 | 1018.8 |
| 20260502221538 | 17 | 127 | 8.0 | 11.3 | 0.00 | 0.00 | 0.00 | 69 | 1018.8 |
| 20260502220037 | 17 | 113 | 1.6 | 6.4 | 0.00 | 0.00 | 0.00 | 66 | 1018.8 |
| 20260502214536 | 17 | 115 | 0.0 | 4.8 | 0.00 | 0.00 | 0.00 | 64 | 1018.7 |
| 20260502213041 | 18 | 111 | 0.0 | 3.2 | 0.00 | 0.00 | 0.00 | 63 | 1018.5 |
| 20260502211535 | 18 | 114 | 0.0 | 3.2 | 0.00 | 0.00 | 0.00 | 62 | 1018.5 |
| 20260502210032 | 18 | 117 | 3.2 | 8.0 | 0.00 | 0.00 | 0.00 | 61 | 1018.5 |
| 20260502204532 | 18 | 113 | 4.8 | 6.4 | 0.00 | 0.00 | 0.00 | 59 | 1018.5 |
| 20260502203036 | 19 | 113 | 1.6 | 4.8 | 0.00 | 0.00 | 0.00 | 57 | 1018.5 |
| 20260502201534 | 20 | 113 | 0.0 | 0.0 | 0.00 | 0.00 | 0.00 | 55 | 1018.5 |
| 20260502200031 | 20 | 113 | 0.0 | 1.6 | 0.00 | 0.00 | 0.00 | 55 | 1018.5 |
| 20260502194533 | 20 | 117 | 4.8 | 11.3 | 0.00 | 0.00 | 0.00 | 54 | 1018.5 |
| 20260502193030 | 21 | 116 | 1.6 | 6.4 | 0.00 | 0.00 | 0.00 | 51 | 1018.5 |
| 20260502191532 | 20 | 109 | 0.0 | 3.2 | 0.00 | 0.00 | 0.00 | 52 | 1018.4 |
| 20260502190029 | 21 | 113 | 1.6 | 6.4 | 0.00 | 0.00 | 0.00 | 53 | 1018.3 |
| 20260502184528 | 21 | 121 | 1.6 | 4.8 | 0.00 | 0.00 | 0.00 | 53 | 1018.2 |
| 20260502183028 | 21 | 117 | 0.0 | 6.4 | 0.00 | 0.00 | 0.00 | 53 | 1018.0 |
| 20260502181532 | 22 | 107 | 0.0 | 4.8 | 0.00 | 0.00 | 0.00 | 51 | 1018.1 |
| 20260502163023 | 25 | 76 | 1.6 | 6.4 | 0.00 | 0.00 | 0.00 | 39 | 1018.2 |
| 20260502161521 | 26 | 61 | 1.6 | 6.4 | 0.00 | 0.00 | 0.00 | 38 | 1018.4 |
| 20260502151516 | 25 | 316 | 1.6 | 9.7 | 0.00 | 0.00 | 0.00 | 39 | 1018.9 |
| 20260502123051 | 24 | 267 | 4.8 | 16.1 | 0.00 | 0.00 | 0.00 | 45 | 1021.3 |
| 20260502121549 | 24 | 295 | 8.0 | 12.9 | 0.00 | 0.00 | 0.00 | 45 | 1021.5 |
| 20260502114549 | 24 | 145 | 1.6 | 8.0 | 0.00 | 0.00 | 0.00 | 47 | 1022.0 |
| 20260502113041 | 23 | 183 | 0.0 | 4.8 | 0.00 | 0.00 | 0.00 | 47 | 1022.3 |
| 20260502111539 | 22 | 234 | 1.6 | 12.9 | 0.00 | 0.00 | 0.00 | 49 | 1022.6 |
| 20260502110038 | 23 | 185 | 0.0 | 9.7 | 0.00 | 0.00 | 0.00 | 49 | 1022.9 |
| 20260502104535 | 22 | 190 | 0.0 | 6.4 | 0.00 | 0.00 | 0.00 | 52 | 1023.1 |
| 20260502103030 | 22 | 158 | 0.0 | 3.2 | 0.00 | 0.00 | 0.00 | 53 | 1023.3 |
| 20260502101534 | 21 | 281 | 1.6 | 6.4 | 0.00 | 0.00 | 0.00 | 55 | 1023.6 |
| 20260502091512 | 18 | 56 | 3.2 | 9.7 | 0.00 | 0.00 | 0.00 | 60 | 1024.3 |
| 20260502080105 | 15 | 329 | 0.0 | 1.6 | 0.00 | 0.00 | 0.00 | 67 | 1025.0 |
| 20260502070045 | 12 | 119 | 0.0 | 0.0 | 0.00 | 0.00 | 0.00 | 73 | 1025.3 |
| 20260502064555 | 11 | 119 | 0.0 | 0.0 | 0.00 | 0.00 | 0.00 | 77 | 1025.4 |
| 20260502063041 | 11 | 119 | 0.0 | 0.0 | 0.00 | 0.00 | 0.00 | 79 | 1025.4 |
| 20260502061541 | 10 | 119 | 0.0 | 0.0 | 0.00 | 0.00 | 0.00 | 79 | 1025.4 |
| 20260502060040 | 10 | 119 | 0.0 | 0.0 | 0.00 | 0.00 | 0.00 | 80 | 1025.4 |
| 20260502054543 | 10 | 119 | 0.0 | 0.0 | 0.00 | 0.00 | 0.00 | 82 | 1025.4 |
| 20260502053037 | 9 | 119 | 0.0 | 0.0 | 0.00 | 0.00 | 0.00 | 82 | 1025.4 |
| 20260502051538 | 9 | 119 | 0.0 | 0.0 | 0.00 | 0.00 | 0.00 | 82 | 1025.4 |
| 20260502050034 | 8 | 119 | 0.0 | 0.0 | 0.00 | 0.00 | 0.00 | 82 | 1025.3 |
| 20260502044534 | 8 | 119 | 0.0 | 0.0 | 0.00 | 0.00 | 0.00 | 81 | 1025.3 |
| 20260502043024 | 9 | 119 | 0.0 | 4.8 | 0.00 | 0.00 | 0.00 | 80 | 1025.2 |
| 20260502041521 | 9 | 120 | 3.2 | 6.4 | 0.00 | 0.00 | 0.00 | 80 | 1025.3 |
| 20260502040034 | 9 | 122 | 3.2 | 8.0 | 0.00 | 0.00 | 0.00 | 80 | 1025.2 |
| 20260502034525 | 9 | 124 | 0.0 | 8.0 | 0.00 | 0.00 | 0.00 | 80 | 1025.2 |
| 20260502033019 | 9 | 126 | 3.2 | 8.0 | 0.00 | 0.00 | 0.00 | 79 | 1025.3 |
| 20260502031515 | 9 | 122 | 0.0 | 0.0 | 0.00 | 0.00 | 0.00 | 78 | 1025.2 |
| 20260502030013 | 10 | 121 | 3.2 | 6.4 | 0.00 | 0.00 | 0.00 | 74 | 1025.1 |
| 20260502024516 | 10 | 105 | 0.0 | 4.8 | 0.00 | 0.00 | 0.00 | 74 | 1025.2 |
| 20260502023012 | 10 | 106 | 1.6 | 6.4 | 0.00 | 0.00 | 0.00 | 72 | 1025.3 |
| 20260502021509 | 10 | 105 | 0.0 | 0.0 | 0.00 | 0.00 | 0.00 | 72 | 1025.3 |
| 20260502020009 | 10 | 105 | 0.0 | 6.4 | 0.00 | 0.00 | 0.00 | 73 | 1025.2 |
| 20260502014519 | 10 | 98 | 0.0 | 3.2 | 0.00 | 0.00 | 0.00 | 70 | 1025.2 |
| 20260502013005 | 10 | 96 | 1.6 | 8.0 | 0.00 | 0.00 | 0.00 | 71 | 1025.3 |
| 20260502011505 | 10 | 123 | 0.0 | 0.0 | 0.00 | 0.00 | 0.00 | 75 | 1025.3 |
| 20260502010002 | 10 | 123 | 1.6 | 3.2 | 0.00 | 0.00 | 0.00 | 75 | 1025.3 |
| 20260502004606 | 11 | 108 | 0.0 | 0.0 | 0.00 | 0.00 | 0.00 | 73 | 1025.2 |
| 20260502003131 | 11 | 107 | 0.0 | 0.0 | 0.00 | 0.00 | 0.00 | 67 | 1025.2 |
| 20260502001631 | 12 | 107 | 0.0 | 0.0 | 0.00 | 0.00 | 0.00 | 66 | 1025.2 |
| 20260502000051 | 12 | 107 | 0.0 | 0.0 | 0.00 | 0.00 | 0.00 | 65 | 1025.3 |
| 20260501234549 | 12 | 107 | 0.0 | 0.0 | 0.00 | 0.00 | 0.00 | 65 | 1025.4 |
| 20260501233048 | 12 | 107 | 0.0 | 0.0 | 0.00 | 0.00 | 0.00 | 64 | 1025.3 |